Content
SEND FEEDBACK

Daily
Averages
Monthly
Summary
Mexico

CANCUN, QUINTANA ROO


Home > North America > Mexico > Quintana Roo
Elevation: 9 meters     Latitude: 21 09N     Longitude: 086 49W

WEATHER
 
SELECT A DAY
Number of Records: 167,736;   Date Range: 1/1/95 - 12/17/14
 
SHARE

PRINT THIS DATA

[ ← Previous Day ]
WEATHER ALMANAC - 3 MAY, 2013
[ Next Day → ]
[ °F ]   °C
Weather ElementAverageHighLow
Temperature25.1 °C31 °C (1:40 pm)20 °C (5:45 am)
Dewpoint19.4 °C21 °C (1:45 am)17 °C (3:41 pm)
Humidity72.9 %100 % (3:43 am)48 % (11:41 am)
Barometer1012.2 hPa1015.2 hPa (1:40 pm)1009.5 hPa (3:41 pm)
Wind Speed20.6 km/h40.7 km/h (2:40 pm)
Wind Gust59.2 km/h (2:40 pm)
Weather ElementAverage
Visibility10.8 km
Wind DirectionNW (311.3 °)

Weather ElementTotal
Precipitation---
Cooling Degree Days7.2 (Base 18.3)
Growing Degree Days15.5 (Base 10)
Averaged from 23 records on 3 May, 2013
WEATHER CONDITIONS BREAKOUT
WIND DIRECTION BREAKOUT
WEATHER BY HOUR - 3 MAY, 2013
[ °F ]   °C
Local TimeTemperatureDewpointHumidityBarometerVisibilityWind DirectionWind SpeedGust SpeedPrecipitationEventsConditions
1:45 AM22 °C21 °C94 %1010.8 hPa9.7 kmNW (320°)7.4 km/hScattered Clouds
2:41 AM22 °C21 °C94 %1010.5 hPa9.7 kmNW (320°)5.6 km/hScattered Clouds
3:43 AM21 °C21 °C100 %1010.5 hPa9.7 kmNW (320°)7.4 km/hScattered Clouds
4:40 AM21 °C20 °C94 %1010.8 hPa9.7 kmNW (310°)7.4 km/hScattered Clouds
5:45 AM20 °C20 °C100 %1011.5 hPa9.7 kmNW (310°)5.6 km/hScattered Clouds
6:43 AM20 °C20 °C100 %1011.9 hPa9.7 kmWNW (300°)13 km/hScattered Clouds
7:40 AM22 °C21 °C94 %1012.5 hPa9.7 kmWNW (300°)13 km/hClear
8:44 AM25 °C21 °C78 %1012.5 hPa9.7 kmWNW (300°)20.4 km/hClear
9:45 AM27 °C20 °C65 %1013.2 hPa11.3 kmWNW (300°)27.8 km/hScattered Clouds
10:41 AM28 °C19 °C58 %1013.2 hPa11.3 kmNNW (330°)18.5 km/hMostly Cloudy
11:41 AM30 °C18 °C48 %1012.5 hPa11.3 kmNW (310°)31.5 km/hMostly Cloudy
12:44 PM30 °C18 °C48 %1012.9 hPa11.3 kmNW (310°)31.5 km/hMostly Cloudy
1:40 PM31 °C19 °C49 %1015.2 hPa11.3 kmNW (310°)29.6 km/hMostly Cloudy
2:40 PM30 °C19 °C51 %1010.8 hPa11.3 kmNW (310°)40.7 km/h59.2 km/hMostly Cloudy
3:41 PM29 °C17 °C48 %1009.5 hPa11.3 kmNW (310°)33.3 km/hScattered Clouds
4:41 PM29 °C18 °C51 %1010.8 hPa11.3 kmNW (320°)31.5 km/hScattered Clouds
5:42 PM28 °C18 °C54 %1011.2 hPa11.3 kmNW (320°)35.2 km/hScattered Clouds
6:42 PM26 °C19 °C65 %1012.2 hPa11.3 kmNW (310°)31.5 km/hPartly Cloudy
7:42 PM25 °C20 °C74 %1012.5 hPa11.3 kmNW (320°)20.4 km/hPartly Cloudy
8:42 PM24 °C19 °C73 %1013.2 hPa11.3 kmNW (310°)20.4 km/hClear
9:48 PM23 °C19 °C78 %1012.2 hPa11.3 kmWNW (300°)13 km/hClear
10:47 PM23 °C19 °C78 %1013.9 hPa11.3 kmNW (320°)14.8 km/hClear
11:46 PM22 °C19 °C83 %1013.5 hPa11.3 kmWNW (300°)13 km/hClear
Hourly data recorded from MMUN, located 0 kilometers away from Cancun, Quintana Roo







STORIES FROM OUR PARTNERS